Flight Track Log - Related Links

Times and Time Zones

All times are in EDT time to prevent confusion due to time zone crossing. See the FFT975 flight status page for this flight to view local times or setup timezone preferences in your user account.

Time Position Orientation Groundspeed Altitude Reporting Facility
EDT Latitude Longitude Course Direction KTS MPH feet Rate Location/Type
07:07 40.2590 -74.8370 221° Southwest 138 159 1,600  Level FlightAware
07:07 40.2500 -74.8460 217° Southwest 148 170 2,100 1,500 Climbing FlightAware
07:07 40.2370 -74.8610 221° Southwest 181 208 2,500 1,231 Climbing FlightAware
07:08 40.2270 -74.8750 227° Southwest 204 235 2,900 1,333 Climbing FlightAware
07:08 40.2130 -74.8920 223° Southwest 236 272 3,300 1,655 Climbing FlightAware
07:08 40.2010 -74.9020 212° Southwest 256 295 3,700 2,143 Climbing FlightAware
07:08 40.1840 -74.9140 208° Southwest 272 313 4,300 2,833 Climbing FlightAware
07:09 40.1620 -74.9290 208° Southwest 279 321 5,400 3,150 Climbing FlightAware
07:09 40.1380 -74.9460 208° Southwest 280 322 6,400 2,500 Climbing FlightAware
07:09 40.1200 -74.9590 209° Southwest 284 327 6,900 1,167 Climbing FlightAware
07:10 40.0980 -74.9740 208° Southwest 287 330 7,100 300 Climbing FlightAware
07:10 40.0740 -74.9920 210° Southwest 288 331 7,100  Level FlightAware
07:10 40.0560 -75.0050 209° Southwest 290 334 7,100 500 Level FlightAware
07:10 40.0470 -75.0110 207° Southwest 290 334 7,300 1,535 Climbing FlightAware
07:11 40.0040 -75.0410 208° Southwest 295 339 8,200 1,529 Climbing FlightAware
07:11 39.9850 -75.0550 209° Southwest 296 341 8,600 1,500 Climbing FlightAware
07:12 39.9610 -75.0720 208° Southwest 294 338 9,100 1,538 Climbing FlightAware
07:12 39.9380 -75.0890 210° Southwest 296 341 9,600 1,371 Climbing FlightAware
07:12 39.9200 -75.1020 209° Southwest 299 344 9,900 500 Climbing FlightAware
07:13 39.8760 -75.1330 208° Southwest 337 388 10,000 174 Climbing FlightAware
07:13 39.8260 -75.1690 209° Southwest 347 399 10,100 81 Climbing FlightAware
07:14 39.7730 -75.2060 208° Southwest 349 402 10,100  Level FlightAware
07:15 39.7270 -75.2390 209° Southwest 349 402 10,100 806 Level FlightAware
07:15 39.6790 -75.2730 209° Southwest 348 400 11,000 2,156 Climbing FlightAware
07:16 39.6370 -75.3000 206° Southwest 356 410 12,400 2,677 Climbing FlightAware
07:16 39.5740 -75.3150 190° South 375 432 13,900 2,471 Climbing FlightAware
07:17 39.5180 -75.3250 188° South 385 443 15,200 1,938 Climbing FlightAware
07:17 39.4630 -75.3350 188° South 390 449 16,000 750 Climbing FlightAware
07:18 39.3900 -75.3480 188° South 392 451 16,100 79 Climbing FlightAware
07:19 39.3210 -75.3600 188° South 394 453 16,100 265 Level FlightAware
07:19 39.2660 -75.3700 188° South 396 456 16,400 609 Climbing FlightAware
07:20 39.1980 -75.3820 188° South 399 459 16,800 857 Climbing FlightAware
07:20 39.1390 -75.3910 187° South 404 465 17,400 1,765 Climbing FlightAware
07:21 39.0700 -75.4020 187° South 409 471 18,800 2,137 Climbing FlightAware
07:21 39.0000 -75.4120 186° South 418 481 20,000 1,973 Climbing FlightAware
07:22 38.9300 -75.4230 187° South 424 488 21,200 2,206 Climbing FlightAware
07:23 38.8680 -75.4320 186° South 422 486 22,500 2,149 Climbing FlightAware
07:23 38.7970 -75.4430 187° South 431 496 23,600 1,521 Climbing FlightAware
07:24 38.7250 -75.4540 187° South 445 512 24,300 1,521 Climbing FlightAware
07:24 38.6530 -75.4650 187° South 449 517 25,400 1,652 Climbing FlightAware
07:25 38.5840 -75.4750 186° South 454 522 26,200 1,629 Climbing FlightAware
07:25 38.5090 -75.4860 187° South 454 522 27,300 1,833 Climbing FlightAware
07:26 38.4330 -75.4980 187° South 455 524 28,400 1,583 Climbing FlightAware
07:27 38.3610 -75.5190 193° South 454 522 29,200 1,164 Climbing FlightAware
07:27 38.2940 -75.5350 191° South 465 535 29,700 971 Climbing FlightAware
07:28 38.2150 -75.5520 190° South 473 544 30,300 1,083 Climbing FlightAware
07:28 38.1410 -75.5680 190° South 477 549 31,000 1,417 Climbing FlightAware
07:29 38.0600 -75.5890 192° South 470 541 32,000 1,565 Climbing FlightAware
07:30 37.9970 -75.6220 202° Southwest 459 528 32,800 1,500 Climbing FlightAware
07:30 37.9320 -75.6720 211° Southwest 454 522 33,700 1,417 Climbing FlightAware
07:31 37.8680 -75.7210 211° Southwest 454 522 34,500 1,324 Climbing FlightAware
07:31 37.8120 -75.7630 211° Southwest 450 518 35,200 1,147 Climbing FlightAware
07:32 37.7500 -75.8110 211° Southwest 451 519 35,800 1,029 Climbing FlightAware
07:32 37.6860 -75.8600 211° Southwest 450 518 36,400 1,083 Climbing FlightAware
07:33 37.6190 -75.9110 211° Southwest 447 514 37,100 845 Climbing FlightAware
07:34 37.5590 -75.9560 211° Southwest 453 521 37,400 493 Climbing FlightAware
07:34 37.4910 -76.0080 211° Southwest 451 519 37,700 474 Climbing FlightAware
07:35 37.4220 -76.0590 210° Southwest 453 521 38,000 338 Climbing FlightAware
07:35 37.3600 -76.1060 211° Southwest 448 516 38,100 86 Climbing FlightAware
07:36 37.3000 -76.1510 211° Southwest 437 503 38,100  Level FlightAware
07:37 37.2340 -76.2010 211° Southwest 439 505 38,100  Level FlightAware
07:37 37.1730 -76.2470 211° Southwest 438 504 38,100 -80 Level FlightAware
07:38 37.1030 -76.2990 211° Southwest 445 512 38,000 -77 Descending FlightAware
07:39 37.0300 -76.3530 211° Southwest 446 513 38,000  Level FlightAware
07:39 36.9690 -76.3990 211° Southwest 448 516 38,000  Level FlightAware
07:40 36.9100 -76.4430 211° Southwest 450 518 38,000 88 Level FlightAware
07:40 36.8450 -76.4910 211° Southwest 451 519 38,100 83 Climbing FlightAware
07:41 36.7810 -76.5380 210° Southwest 453 521 38,100  Level FlightAware
07:42 36.7150 -76.5860 210° Southwest 453 521 38,100  Level FlightAware
07:42 36.6560 -76.6300 211° Southwest 452 520 38,100  Level FlightAware
07:43 36.5790 -76.6870 211° Southwest 448 516 38,100  Level FlightAware
07:43 36.5150 -76.7330 210° Southwest 446 513 38,100  Level FlightAware
07:44 36.4440 -76.7860 211° Southwest 437 503 38,100 -80 Level FlightAware
07:45 36.3820 -76.8310 210° Southwest 434 499 38,000 -91 Descending FlightAware
07:45 36.3300 -76.8700 211° Southwest 433 498 38,000  Level FlightAware
07:46 36.2680 -76.9140 210° Southwest 434 499 38,000  Level FlightAware
07:46 36.1970 -76.9660 211° Southwest 434 499 38,000  Level FlightAware
07:47 36.1450 -77.0040 211° Southwest 435 501 38,000  Level FlightAware
07:48 36.0650 -77.0610 210° Southwest 436 502 38,000  Level FlightAware
07:48 36.0000 -77.1090 211° Southwest 445 512 38,000 71 Level FlightAware
07:49 35.9170 -77.1700 211° Southwest 440 506 38,100 85 Climbing FlightAware
07:50 35.8670 -77.2110 214° Southwest 449 517 38,100  Level FlightAware
07:50 35.7940 -77.2700 213° Southwest 450 518 38,100  Level FlightAware
07:51 35.7320 -77.3210 214° Southwest 451 519 38,100  Level FlightAware
07:51 35.6690 -77.3720 213° Southwest 451 519 38,100  Level FlightAware
07:52 35.5890 -77.4350 213° Southwest 451 519 38,100  Level FlightAware
07:53 35.5160 -77.4940 213° Southwest 452 520 38,100  Level FlightAware
07:54 35.4530 -77.5450 213° Southwest 451 519 38,100  Level FlightAware
07:54 35.3870 -77.5980 213° Southwest 450 518 38,100  Level FlightAware
07:55 35.3260 -77.6460 213° Southwest 448 516 38,100 -83 Level FlightAware
07:55 35.2650 -77.6950 213° Southwest 447 514 38,000 -86 Descending FlightAware
07:56 35.1970 -77.7490 213° Southwest 446 513 38,000  Level FlightAware
07:57 35.1400 -77.7950 213° Southwest 447 514 38,000  Level FlightAware
07:57 35.0640 -77.8550 213° Southwest 448 516 38,000  Level FlightAware
07:58 35.0010 -77.9050 213° Southwest 450 518 38,000 91 Level FlightAware
07:58 34.9490 -77.9460 213° Southwest 451 519 38,100 86 Climbing FlightAware
07:59 34.8790 -78.0010 213° Southwest 452 520 38,100  Level FlightAware
08:00 34.8110 -78.0540 213° Southwest 453 521 38,100  Level FlightAware
08:00 34.7370 -78.1130 213° Southwest 453 521 38,100  Level FlightAware
08:01 34.6770 -78.1600 213° Southwest 454 522 38,100  Level FlightAware
08:01 34.6230 -78.2020 213° Southwest 447 514 38,100 -66 Level FlightAware
08:02 34.5303 -78.2806 213° Southwest 459 528 38,000 -50 Descending Jacksonville Center
08:03 34.4247 -78.3617 213° Southwest 459 528 38,000  Level Jacksonville Center
08:04 34.3169 -78.4428 212° Southwest 440 506 38,000  Level Jacksonville Center
08:05 34.2114 -78.5261 213° Southwest 445 512 38,000  Level Jacksonville Center
08:06 34.1058 -78.6067 212° Southwest 450 518 38,000  Level Jacksonville Center
08:07 33.9892 -78.6750 206° Southwest 455 524 38,000  Level Jacksonville Center
08:08 33.8725 -78.7406 205° Southwest 461 531 38,000  Level Jacksonville Center
08:09 33.7575 -78.8008 204° Southwest 461 531 38,000  Level Jacksonville Center
08:10 33.6386 -78.8639 204° Southwest 461 531 38,000  Level Jacksonville Center
08:11 33.5197 -78.9314 205° Southwest 461 531 38,000  Level Jacksonville Center
08:12 33.4047 -78.9889 203° Southwest 461 531 38,000  Level Jacksonville Center
08:13 33.2917 -79.0511 205° Southwest 454 522 38,000  Level Jacksonville Center
08:14 33.1747 -79.1181 206° Southwest 460 529 38,000  Level Jacksonville Center
08:15 33.0556 -79.1800 204° Southwest 460 529 38,000  Level Jacksonville Center
08:16 32.9344 -79.2444 204° Southwest 466 536 38,000  Level Jacksonville Center
08:17 32.8172 -79.3086 205° Southwest 471 542 38,000 50 Level Jacksonville Center
08:18 32.6981 -79.3725 204° Southwest 471 542 38,100  Climbing Jacksonville Center
08:19 32.5767 -79.4364 204° Southwest 477 549 38,000 -50 Descending Jacksonville Center
08:20 32.4614 -79.4972 204° Southwest 472 543 38,000  Level Jacksonville Center
08:21 32.3439 -79.5608 205° Southwest 467 537 38,000  Level Jacksonville Center
08:22 32.2267 -79.6214 204° Southwest 467 537 38,000 50 Level Jacksonville Center
08:23 32.1092 -79.6869 205° Southwest 467 537 38,100  Climbing Jacksonville Center
08:24 31.9939 -79.7450 203° Southwest 467 537 38,000 -50 Descending Jacksonville Center
08:25 31.8764 -79.8078 204° Southwest 462 532 38,000  Level Jacksonville Center
08:26 31.7631 -79.8675 204° Southwest 455 524 38,000  Level Jacksonville Center
08:27 31.6475 -79.9275 204° Southwest 455 524 38,000  Level Jacksonville Center
08:28 31.5319 -79.9847 203° Southwest 455 524 38,000  Level Jacksonville Center
08:34 30.8860 -80.3180 203° Southwest 454 522 38,000  Level FlightAware
08:34 30.8270 -80.3480 204° Southwest 454 522 38,000  Level FlightAware
08:35 30.7580 -80.3830 204° Southwest 455 524 38,000 87 Level FlightAware
08:36 30.6950 -80.4150 204° Southwest 457 526 38,100 82 Climbing FlightAware
08:36 30.6160 -80.4560 204° Southwest 458 527 38,100  Level FlightAware
08:37 30.5550 -80.4870 204° Southwest 456 525 38,100  Level FlightAware
08:37 30.4820 -80.5230 203° Southwest 455 524 38,100  Level FlightAware
08:38 30.4150 -80.5570 204° Southwest 453 521 38,100  Level FlightAware
08:38 30.3540 -80.5880 204° Southwest 450 518 38,100 -86 Level FlightAware
08:39 30.2800 -80.6150 197° South 449 517 38,000 -82 Descending FlightAware
08:40 30.2050 -80.6120 178° South 445 512 38,000  Level FlightAware
08:40 30.1330 -80.6030 174° South 444 511 38,000  Level FlightAware
08:41 30.0710 -80.5960 174° South 444 511 38,000  Level FlightAware
08:41 29.9870 -80.5850 174° South 444 511 38,000 85 Level FlightAware
08:42 29.9260 -80.5780 174° South 443 510 38,100 88 Climbing FlightAware
08:43 29.8490 -80.5690 174° South 443 510 38,100  Level FlightAware
08:43 29.7790 -80.5600 174° South 442 509 38,100  Level FlightAware
08:44 29.7050 -80.5510 174° South 441 507 38,100 -92 Level FlightAware
08:44 29.6460 -80.5440 174° South 441 507 38,000  Descending FlightAware
08:45 29.5520 -80.5330 174° South 439 505 38,100  Climbing FlightAware
08:46 29.4650 -80.5220 174° South 439 505 38,000 -80 Descending FlightAware
08:46 29.3980 -80.5140 174° South 440 506 38,000  Level FlightAware
08:47 29.3290 -80.5060 174° South 440 506 38,000 82 Level FlightAware
08:47 29.2490 -80.4960 174° South 441 507 38,100 83 Climbing FlightAware
08:48 29.1820 -80.4880 174° South 441 507 38,100  Level FlightAware
08:49 29.1130 -80.4800 174° South 441 507 38,100  Level FlightAware
08:49 29.0400 -80.4710 174° South 442 509 38,100  Level FlightAware
08:50 28.9730 -80.4630 174° South 442 509 38,100 -88 Level FlightAware
08:50 28.9030 -80.4550 174° South 443 510 38,000  Descending FlightAware
08:51 28.8210 -80.4420 172° South 446 513 38,100 75 Climbing FlightAware
08:52 28.7420 -80.4100 160° South 449 517 38,100  Level FlightAware
08:52 28.6820 -80.3830 158° South 447 514 38,100  Level FlightAware
08:53 28.6130 -80.3520 158° South 444 511 38,100 -79 Level FlightAware
08:53 28.5370 -80.3180 159° South 439 505 38,000 -78 Descending FlightAware
08:54 28.4620 -80.2850 159° South 435 501 38,000  Level FlightAware
08:55 28.3960 -80.2550 158° South 432 497 38,000  Level FlightAware
08:55 28.3090 -80.2170 159° South 428 493 38,000 -225 Level FlightAware
08:56 28.2470 -80.1910 160° South 424 488 37,700 -794 Descending FlightAware
08:57 28.1830 -80.1720 165° South 420 483 37,100 -986 Descending FlightAware
08:57 28.1050 -80.1540 168° South 429 494 36,500 -675 Descending FlightAware
08:58 28.0360 -80.1370 168° South 433 498 36,200 -944 Descending FlightAware
08:59 27.9350 -80.1140 169° South 426 490 35,100 -1,227 Descending FlightAware
08:59 27.8530 -80.0950 168° South 440 506 34,400 -1,543 Descending FlightAware
09:00 27.7950 -80.0810 168° South 461 531 33,300 -2,314 Descending FlightAware
09:01 27.7060 -80.0630 170° South 469 540 31,700 -1,397 Descending FlightAware
09:01 27.6520 -80.0540 172° South 469 540 31,600 -2,585 Descending FlightAware
09:02 27.5650 -80.0470 176° South 468 539 28,900 -3,529 Descending FlightAware
09:02 27.4900 -80.0400 175° South 465 535 27,600 -1,533 Descending FlightAware
09:03 27.3820 -80.0410 180° South 450 518 26,600 -659 Descending FlightAware
09:04 27.3170 -80.0420 181° South 450 518 26,600 -2,108 Level FlightAware
09:04 27.2230 -80.0470 183° South 437 503 24,000 -2,026 Descending FlightAware
09:05 27.1410 -80.0500 182° South 447 514 24,000  Level FlightAware
09:06 27.0660 -80.0530 182° South 447 514 24,000  Level FlightAware
09:06 26.9800 -80.0570 182° South 447 514 24,000 -837 Level FlightAware
09:07 26.8850 -80.0490 176° South 446 513 22,800 -1,527 Descending FlightAware
09:07 26.8590 -80.0360 156° South 433 498 22,600 -889 Descending FlightAware
09:08 26.8380 -80.0180 143° Southeast 425 489 22,400 -1,241 Descending FlightAware
09:08 26.8200 -79.9900 126° Southeast 416 479 22,000 -1,655 Descending FlightAware
09:08 26.8110 -79.9660 113° Southeast 412 474 21,600 -2,250 Descending FlightAware
09:09 26.7950 -79.8940 104° East 403 464 20,200 -2,344 Descending FlightAware
09:09 26.7810 -79.8360 105° East 400 460 19,100 -2,160 Descending FlightAware
09:10 26.7210 -79.7720 136° Southeast 379 436 17,500 -1,964 Descending FlightAware
09:10 26.7070 -79.7700 173° South 372 428 17,300 -2,000 Descending FlightAware
09:11 26.6570 -79.7780 188° South 364 419 16,200 -2,000 Descending FlightAware
09:11 26.5940 -79.7930 192° South 355 409 15,000 -2,833 Descending FlightAware
09:12 26.5400 -79.8060 192° South 352 405 12,800 -4,029 Descending FlightAware
09:12 26.4820 -79.8200 192° South 354 407 10,300 -2,417 Descending FlightAware
09:13 26.4310 -79.8360 196° South 293 337 9,900 -1,286 Descending FlightAware
09:13 26.4050 -79.8480 202° Southwest 295 339 9,100 -1,950 Descending FlightAware
09:14 26.3810 -79.8610 206° Southwest 295 339 8,600 -1,364 Descending FlightAware
09:14 26.3570 -79.8840 221° Southwest 286 329 8,100 -818 Descending FlightAware
09:14 26.3360 -79.9040 220° Southwest 289 333 8,000 -188 Descending FlightAware
09:15 26.3230 -79.9160 220° Southwest 288 331 8,000 -529 Level FlightAware
09:15 26.3020 -79.9370 222° Southwest 284 327 7,700 -1,297 Descending FlightAware
09:15 26.2870 -79.9510 220° Southwest 284 327 7,200 -1,714 Descending FlightAware
09:15 26.2670 -79.9700 220° Southwest 281 323 6,700 -1,459 Descending FlightAware
09:16 26.2510 -79.9850 220° Southwest 280 322 6,300 -1,135 Descending FlightAware
09:16 26.2310 -80.0050 222° Southwest 280 322 6,000 -462 Descending FlightAware
09:16 26.2110 -80.0240 220° Southwest 281 323 6,000  Level FlightAware
09:17 26.1930 -80.0410 220° Southwest 281 323 6,000  Level FlightAware
09:17 26.1840 -80.0510 225° Southwest 282 325 6,000  Level FlightAware
09:17 26.1790 -80.0610 241° Southwest 282 325 6,000  Level FlightAware
09:17 26.1750 -80.0720 248° West 282 325 6,000  Level FlightAware
09:17 26.1670 -80.0990 252° West 269 310 6,000  Level FlightAware
09:18 26.1600 -80.1230 252° West 249 287 6,000 -450 Level FlightAware
09:18 26.1520 -80.1470 250° West 240 276 5,700 -1,071 Descending FlightAware
09:18 26.1510 -80.1570 264° West 239 275 5,500 -1,412 Descending FlightAware
09:19 26.1510 -80.1900 270° West 236 272 4,900 -1,250 Descending FlightAware
09:19 26.1500 -80.2150 267° West 235 270 4,500 -977 Descending FlightAware
09:19 26.1500 -80.2400 270° West 224 258 4,200 -585 Descending FlightAware
09:20 26.1500 -80.2620 270° West 213 245 4,100 -293 Descending FlightAware
09:20 26.1500 -80.2830 270° West 211 243 4,000 -133 Descending FlightAware
09:21 26.1500 -80.3110 270° West 209 241 4,000  Level FlightAware
09:21 26.1490 -80.3320 267° West 207 238 4,000  Level FlightAware
09:21 26.1470 -80.3380 250° West 203 234 4,000 -600 Level FlightAware
09:21 26.1450 -80.3410 233° Southwest 204 235 3,900 -1,200 Descending FlightAware
09:21 26.1410 -80.3450 222° Southwest 203 234 3,800 -1,200 Descending FlightAware
09:21 26.1320 -80.3500 207° Southwest 201 231 3,600 -1,600 Descending FlightAware
09:21 26.1270 -80.3500 180° South 193 222 3,400 -1,400 Descending FlightAware
09:22 26.1050 -80.3480 175° South 199 229 2,900 -1,200 Descending FlightAware
09:22 26.0970 -80.3440 156° South 197 227 2,700 -1,500 Descending FlightAware
09:22 26.0910 -80.3350 127° Southeast 196 226 2,400 -1,440 Descending FlightAware
09:22 26.0850 -80.3230 119° Southeast 194 223 2,100 -800 Descending FlightAware
09:23 26.0800 -80.3080 110° East 189 217 2,000 -194 Descending FlightAware
09:23 26.0780 -80.2940 99° East 193 222 2,000  Level FlightAware
09:23 26.0780 -80.2840 90° East 187 215 2,000 -706 Level FlightAware
09:23 26.0780 -80.2600 90° East 178 205 1,600 -913 Descending FlightAware
09:24 26.0770 -80.2430 94° East 162 186 1,300 -750 Descending FlightAware
09:24 26.0770 -80.2280 90° East 147 169 1,100 -735 Descending FlightAware
09:25 26.0770 -80.2060 90° East 129 148 700 -667 Descending FlightAware
09:25 26.0770 -80.1970 90° East 128 147 600 -632 Descending FlightAware
09:25 26.0770 -80.1820 90° East 130 150 300 -360 Descending FlightAware
09:26 26.0770 -80.1660 90° East 130 150 300  Level FlightAware
09:32 26.0667 -80.1500 103° East  Level FlightAware Approximate
09:33 26.0726 -80.1527 103° East  Level Estimated

Login

Don't have an account? Register now (free) for customized features, flight alerts, and more!